| time (UTC) | temp F | wind direction | speed MPH | gust MPH | rain 1hr in | rain 24hr in | rain mn in | humidity % | barometer mb |
| 20260504174545 | 57 | 258 | 5.0 | 7.0 | 0.00 | 0.00 | 0.00 | 33 | 1006.1 |
| 20260504173040 | 56 | 94 | 1.0 | 5.0 | 0.00 | 0.00 | 0.00 | 33 | 1006.4 |
| 20260504171537 | 54 | 282 | 2.0 | 6.0 | 0.00 | 0.00 | 0.00 | 37 | 1006.5 |
| 20260504140107 | 34 | 328 | 1.0 | 3.0 | 0.00 | 0.00 | 0.00 | 63 | 1008.3 |
| 20260504081529 | 30 | 49 | 0.0 | 2.0 | 0.00 | 0.00 | 0.00 | 63 | 1008.2 |
| 20260504050010 | 36 | 45 | 0.0 | 1.0 | 0.00 | 0.00 | 0.00 | 52 | 1007.7 |
| 20260504044507 | 39 | 46 | 0.0 | 1.0 | 0.00 | 0.00 | 0.00 | 48 | 1007.5 |
| 20260504043007 | 39 | 41 | 0.0 | 4.0 | 0.00 | 0.00 | 0.00 | 48 | 1007.5 |
| 20260504041509 | 39 | 91 | 0.0 | 3.0 | 0.00 | 0.00 | 0.00 | 47 | 1007.3 |
| 20260504040006 | 40 | 112 | 0.0 | 1.0 | 0.00 | 0.00 | 0.00 | 46 | 1007.1 |
| 20260504034505 | 41 | 243 | 0.0 | 2.0 | 0.00 | 0.00 | 0.00 | 44 | 1007.0 |
| 20260504033008 | 44 | 102 | 0.0 | 2.0 | 0.00 | 0.00 | 0.00 | 42 | 1006.8 |
| 20260504031506 | 46 | 105 | 0.0 | 3.0 | 0.00 | 0.00 | 0.00 | 41 | 1006.6 |
| 20260504030004 | 49 | 31 | 1.0 | 3.0 | 0.00 | 0.00 | 0.00 | 35 | 1006.6 |
| 20260504024503 | 51 | 347 | 1.0 | 2.0 | 0.00 | 0.00 | 0.00 | 31 | 1006.4 |
| 20260504023003 | 54 | 341 | 1.0 | 3.0 | 0.00 | 0.00 | 0.00 | 29 | 1006.3 |
| 20260504021501 | 58 | 284 | 2.0 | 5.0 | 0.00 | 0.00 | 0.00 | 23 | 1006.2 |
| 20260504020001 | 61 | 234 | 3.0 | 5.0 | 0.00 | 0.00 | 0.00 | 20 | 1006.0 |
| 20260504014606 | 62 | 256 | 3.0 | 7.0 | 0.00 | 0.00 | 0.00 | 19 | 1006.0 |
| 20260504013100 | 63 | 290 | 2.0 | 6.0 | 0.00 | 0.00 | 0.00 | 17 | 1006.1 |
| 20260504011558 | 63 | 287 | 4.0 | 9.0 | 0.00 | 0.00 | 0.00 | 16 | 1006.3 |
| 20260504010105 | 63 | 297 | 5.0 | 9.0 | 0.00 | 0.00 | 0.00 | 16 | 1006.5 |
| 20260504004556 | 62 | 314 | 3.0 | 7.0 | 0.00 | 0.00 | 0.00 | 17 | 1006.5 |
| 20260504003057 | 63 | 264 | 2.0 | 4.0 | 0.00 | 0.00 | 0.00 | 15 | 1006.7 |
| 20260504001553 | 64 | 287 | 6.0 | 11.0 | 0.00 | 0.00 | 0.00 | 15 | 1006.8 |
| 20260504000125 | 65 | 236 | 7.0 | 11.0 | 0.00 | 0.00 | 0.00 | 12 | 1006.9 |
| 20260503234556 | 65 | 264 | 4.0 | 11.0 | 0.00 | 0.00 | 0.00 | 15 | 1007.2 |
| 20260503233044 | 65 | 303 | 9.0 | 14.0 | 0.00 | 0.00 | 0.00 | 14 | 1007.3 |
| 20260503231541 | 64 | 290 | 9.0 | 15.0 | 0.00 | 0.00 | 0.00 | 14 | 1007.4 |
| 20260503230038 | 63 | 276 | 9.0 | 14.0 | 0.00 | 0.00 | 0.00 | 18 | 1007.6 |
| 20260503224538 | 64 | 283 | 8.0 | 14.0 | 0.00 | 0.00 | 0.00 | 14 | 1007.7 |
| 20260503223039 | 65 | 291 | 6.0 | 16.0 | 0.00 | 0.00 | 0.00 | 17 | 1007.9 |
| 20260503221546 | 63 | 295 | 8.0 | 13.0 | 0.00 | 0.00 | 0.00 | 19 | 1008.2 |
| 20260503220034 | 64 | 252 | 5.0 | 9.0 | 0.00 | 0.00 | 0.00 | 16 | 1008.3 |
| 20260503214531 | 64 | 276 | 6.0 | 12.0 | 0.00 | 0.00 | 0.00 | 15 | 1008.5 |
| 20260503213029 | 66 | 257 | 7.0 | 12.0 | 0.00 | 0.00 | 0.00 | 14 | 1008.7 |
| 20260503211527 | 64 | 262 | 5.0 | 11.0 | 0.00 | 0.00 | 0.00 | 15 | 1009.1 |
| 20260503210024 | 61 | 167 | 2.0 | 6.0 | 0.00 | 0.00 | 0.00 | 17 | 1009.3 |
| 20260503204523 | 61 | 262 | 8.0 | 10.0 | 0.00 | 0.00 | 0.00 | 18 | 1009.5 |
| 20260503203033 | 64 | 241 | 7.0 | 12.0 | 0.00 | 0.00 | 0.00 | 15 | 1009.6 |
| 20260503201521 | 63 | 257 | 9.0 | 12.0 | 0.00 | 0.00 | 0.00 | 17 | 1009.6 |
| 20260503200020 | 63 | 263 | 8.0 | 13.0 | 0.00 | 0.00 | 0.00 | 14 | 1009.9 |
| 20260503194518 | 65 | 269 | 7.0 | 14.0 | 0.00 | 0.00 | 0.00 | 18 | 1009.9 |
| 20260503193017 | 63 | 274 | 7.0 | 13.0 | 0.00 | 0.00 | 0.00 | 14 | 1010.2 |
| 20260503191513 | 63 | 285 | 9.0 | 14.0 | 0.00 | 0.00 | 0.00 | 16 | 1010.3 |
| 20260503190010 | 63 | 271 | 9.0 | 13.0 | 0.00 | 0.00 | 0.00 | 17 | 1010.4 |
| 20260503184508 | 63 | 286 | 9.0 | 14.0 | 0.00 | 0.00 | 0.00 | 16 | 1010.7 |
| 20260503183006 | 62 | 276 | 8.0 | 13.0 | 0.00 | 0.00 | 0.00 | 18 | 1010.9 |
| 20260503181504 | 61 | 255 | 5.0 | 12.0 | 0.00 | 0.00 | 0.00 | 17 | 1011.0 |
| 20260503180117 | 61 | 231 | 5.0 | 10.0 | 0.00 | 0.00 | 0.00 | 23 | 1011.2 |